YUNHAI-2 5 (43913 NORAD) Tracking and Keplerian Element Data

This shows tracking and keplerian element data for the satellite.

Feedback or suggestion? Click here.




ElementValue
Catalog43913
NameYUNHAI-2 5
Epoch Orbit261
Epoch Day17.7757013
Epoch Year2019
RAAN113.7723
Inclination50.0089
Eccentricity0.0005116
Argument of Perigee305.6488
Mean Anonmoly54.3912
Mean Motion13.4396605
Decay Rate-9E-07
L11 43913U 18112E 19017.77570130 -.00000090 00000-0 66930-4 0 9999
L22 43913 50.0089 113.7723 0005116 305.6488 54.3912 13.43966050 2615

Live tracking and technical data element details for YUNHAI-2 5 (NORAD 43913). YUNHAI-2 5 can be tracked NOW for your location showing map with azimuth and elevation plus other details from your city location.

Track the satellite on the map from your city or location and see movement details for azimuth, elevation, latitude, longitude, range, height, and movement on the map or in text.







IsCatalogInMostPopularTable: catalog: 43913, numindb: 12
Update: records affected: 1



GetName: 43913 YUNHAI-2 5

Hit Count: updated at: Fri, 18 Jan 2019 21:46:00 GMT